Flag for U.S.A. Weather past 2 weeks in Tucson, Arizona, U.S.A.

Now
50 °F

Sunny.


Feels Like: 48 °F
Forecast: 25 / 51 °F
Wind: 5 mph from North

Location: Davis-Monthan Air Force Base

Current Time: Dec 27, 2014 at 3:59:33 PM

Latest Report: Dec 27, 2014 at 2:58 PM


Visibility: 10 mi

Pressure: 30.19 "Hg

Humidity: 27%

Dew point: 17 °F

Location of TucsonLocation

Historic Weather in Tucson — Graph

°F

Tucson temperature yesterday

Maximum temperature yesterday: 50 °F (at 3:58 PM)
Minimum temperature yesterday: 33 °F (at 11:58 PM)
Average temperature yesterday: 42 °F

Past Weeks' High & Low Weather Summary

 TemperatureHumidityPressure
High76 °F (Dec 12, 2:58 PM)100% (Dec 13, 12:58 PM)30.26 "Hg (Dec 13, 12:58 PM)
Low29 °F (Dec 27, 6:58 AM)11% (Dec 24, 2:58 PM)29.61 "Hg (Dec 25, 1:58 PM)
Average49 °F66%30.01 "Hg
* Reported Dec 12 2:58 PM — Dec 27 2:58 PM, Tucson, Weather by CustomWeather, © 2014

Note: Actual official high and low records may vary slightly from our data, if they occured in-between our weather recording intervals... More about our weather records

Advertising

Tucson weather history for previous 24 hours

 ConditionsComfort  
Time TempWeatherWind HumidityBarometerVisibility
2:58 PM
Dec 27
50 °FSunny.5 mph27%30.19 "Hg10 mi
1:58 PM48 °FSunny.7 mph29%30.19 "Hg10 mi
12:58 PM47 °FSunny.5 mph34%30.19 "Hg10 mi
11:58 AM44 °FSunny.1 mph37%30.22 "Hg10 mi
10:58 AM42 °FSunny.No wind41%30.25 "Hg10 mi
9:58 AM38 °FSunny.No wind53%30.26 "Hg10 mi
8:58 AM34 °FSunny.1 mph67%30.24 "Hg10 mi
7:58 AM30 °FSunny.3 mph79%30.20 "Hg10 mi
6:58 AM29 °FClear.3 mph81%30.18 "Hg10 mi
5:58 AM29 °FClear.6 mph83%30.15 "Hg10 mi
4:58 AM29 °FClear.5 mph82%30.12 "Hg10 mi
3:58 AM29 °FClear.5 mph83%30.10 "Hg10 mi
2:58 AM31 °FClear.6 mph82%30.09 "Hg10 mi
1:58 AM31 °FClear.6 mph78%30.08 "Hg10 mi
12:58 AM32 °FClear.7 mph78%30.09 "Hg10 mi
11:58 PM
Dec 26
33 °FClear.5 mph74%30.08 "Hg10 mi
10:58 PM35 °FClear.6 mph63%30.08 "Hg10 mi
9:58 PM36 °FClear.3 mph62%30.07 "Hg10 mi
8:58 PM37 °FClear.5 mph56%30.06 "Hg10 mi
7:58 PM41 °FClear.No wind41%30.05 "Hg10 mi
6:58 PM43 °FClear.5 mph38%30.02 "Hg10 mi
5:58 PM44 °FClear.7 mph41%30.00 "Hg10 mi
4:58 PM48 °FSunny.10 mph29%29.97 "Hg10 mi
3:58 PM50 °FSunny.10 mph25%29.94 "Hg10 mi
Weather by CustomWeather, © 2014

See weather overviewHow to use our weather pages